GJW0805 LSZS-LECH

Flight info

Callsign GJW0805
Flight time 1h 42m
Altitude 37000
Route DILEB DCT BORDI DCT PADKO UM984 DIVKO G7 MAMES M984 BISBA DCT RODRA M985 TORDU
Aircraft A320/M-SDE3FGHIRWY/LB1

Departure

Time 2026-05-08 11:37
Airport Engadin Airport (LSZS)

Arrival

Time 2026-05-08 13:19
Airport Castellón-Costa Azahar Airport (LECH)
Time Latitude Longitude Altitude Speed Heading
2026-05-08 11:21 46.53062 9.87971 5615 ft 0 kts 297°
2026-05-08 11:31 46.53060 9.87938 5607 ft 5 kts 232°
2026-05-08 11:32 46.53017 9.87934 5610 ft 7 kts 161°
2026-05-08 11:32 46.52980 9.88002 5608 ft 12 kts 120°
2026-05-08 11:32 46.52936 9.88120 5614 ft 11 kts 116°
2026-05-08 11:32 46.52958 9.88161 5613 ft 7 kts 27°
2026-05-08 11:33 46.53015 9.88205 5614 ft 11 kts 29°
2026-05-08 11:33 46.53093 9.88269 5612 ft 15 kts 29°
2026-05-08 11:33 46.53197 9.88354 5609 ft 19 kts 30°
2026-05-08 11:33 46.53322 9.88454 5614 ft 22 kts 30°
2026-05-08 11:34 46.53474 9.88579 5612 ft 27 kts 28°
2026-05-08 11:34 46.53657 9.88728 5611 ft 33 kts 29°
2026-05-08 11:34 46.53865 9.88895 5615 ft 35 kts 29°
2026-05-08 11:34 46.54046 9.89043 5614 ft 15 kts 30°
2026-05-08 11:35 46.54120 9.89030 5618 ft 11 kts 308°
2026-05-08 11:35 46.54137 9.88970 5614 ft 4 kts 265°
2026-05-08 11:35 46.54134 9.88961 5614 ft 0 kts 235°
2026-05-08 11:35 46.54131 9.88961 5614 ft 0 kts 208°
2026-05-08 11:36 46.54123 9.88963 5618 ft 2 kts 168°
2026-05-08 11:36 46.54118 9.88959 5614 ft 1 kts 212°
2026-05-08 11:36 46.54113 9.88955 5614 ft 1 kts 209°
2026-05-08 11:36 46.53889 9.88772 5615 ft 80 kts 209°
2026-05-08 11:37 46.53475 9.88438 5614 ft 124 kts 210°
2026-05-08 11:37 46.52621 9.87748 6011 ft 143 kts 209°
2026-05-08 11:37 46.51431 9.86824 6964 ft 151 kts 208°
2026-05-08 11:37 46.50470 9.86077 7605 ft 164 kts 208°
2026-05-08 11:38 46.49761 9.85534 7893 ft 178 kts 207°
2026-05-08 11:38 46.48204 9.84268 8444 ft 209 kts 210°
2026-05-08 11:38 46.47320 9.83525 8788 ft 226 kts 210°
2026-05-08 11:38 46.45896 9.82297 9358 ft 251 kts 215°
2026-05-08 11:39 46.44613 9.80400 9923 ft 277 kts 232°
2026-05-08 11:39 46.43422 9.78087 10500 ft 300 kts 234°
2026-05-08 11:39 46.41708 9.74673 11122 ft 333 kts 234°
2026-05-08 11:39 46.40769 9.72802 11446 ft 346 kts 234°
2026-05-08 11:40 46.39337 9.69954 12213 ft 353 kts 234°
2026-05-08 11:40 46.37880 9.67062 13068 ft 358 kts 234°
2026-05-08 11:40 46.36405 9.64129 13975 ft 362 kts 234°
2026-05-08 11:40 46.34916 9.61164 14855 ft 366 kts 234°
2026-05-08 11:41 46.33434 9.58204 15680 ft 369 kts 234°
2026-05-08 11:41 46.31880 9.55169 16464 ft 372 kts 230°
2026-05-08 11:41 46.29955 9.52743 17188 ft 375 kts 212°
2026-05-08 11:41 46.27535 9.51298 17937 ft 381 kts 193°
2026-05-08 11:42 46.24884 9.51080 18687 ft 386 kts 174°
2026-05-08 11:42 46.22284 9.52111 19449 ft 392 kts 160°
2026-05-08 11:42 46.19730 9.53561 20210 ft 396 kts 160°
2026-05-08 11:42 46.17155 9.55035 20909 ft 400 kts 160°
2026-05-08 11:43 46.14550 9.56530 21554 ft 404 kts 161°
2026-05-08 11:43 46.11927 9.58029 22155 ft 408 kts 161°
2026-05-08 11:43 46.09270 9.59542 22768 ft 413 kts 161°
2026-05-08 11:43 46.06588 9.61067 23355 ft 416 kts 161°
2026-05-08 11:44 46.03869 9.62546 23916 ft 419 kts 166°
2026-05-08 11:44 46.01022 9.63401 24472 ft 418 kts 177°
2026-05-08 11:44 45.98121 9.63423 25039 ft 417 kts 188°
2026-05-08 11:44 45.95286 9.62618 25589 ft 415 kts 199°
2026-05-08 11:45 45.92625 9.61036 26153 ft 414 kts 210°
2026-05-08 11:45 45.90210 9.58787 26733 ft 414 kts 217°
2026-05-08 11:45 45.87890 9.56417 27312 ft 415 kts 216°
2026-05-08 11:45 45.85526 9.54012 27840 ft 416 kts 216°
2026-05-08 11:46 45.83161 9.51613 28359 ft 418 kts 216°
2026-05-08 11:46 45.80781 9.49204 28837 ft 419 kts 216°
2026-05-08 11:46 45.78390 9.46789 29361 ft 421 kts 216°
2026-05-08 11:46 45.75998 9.44372 29866 ft 422 kts 216°
2026-05-08 11:47 45.73590 9.41938 30352 ft 423 kts 216°
2026-05-08 11:47 45.71187 9.39514 30960 ft 421 kts 216°
2026-05-08 11:47 45.68801 9.37113 31602 ft 419 kts 216°
2026-05-08 11:47 45.66428 9.34722 32229 ft 416 kts 216°
2026-05-08 11:48 45.64065 9.32343 32853 ft 414 kts 216°
2026-05-08 11:48 45.61715 9.29980 33457 ft 412 kts 216°
2026-05-08 11:48 45.59378 9.27634 34062 ft 410 kts 216°
2026-05-08 11:48 45.57054 9.25300 34656 ft 408 kts 216°
2026-05-08 11:49 45.54727 9.22962 35162 ft 409 kts 217°
2026-05-08 11:49 45.52395 9.20621 35591 ft 411 kts 217°
2026-05-08 11:49 45.50050 9.18275 35999 ft 413 kts 217°
2026-05-08 11:49 45.47695 9.15929 36382 ft 415 kts 217°
2026-05-08 11:50 45.45323 9.13567 36747 ft 417 kts 217°
2026-05-08 11:50 45.42975 9.11227 37026 ft 418 kts 217°
2026-05-08 11:50 45.40602 9.08863 37079 ft 415 kts 217°
2026-05-08 11:51 45.35878 9.04166 37083 ft 414 kts 217°
2026-05-08 11:51 45.31162 8.99476 37081 ft 414 kts 217°
2026-05-08 11:52 45.26432 8.94793 37082 ft 414 kts 217°
2026-05-08 11:52 45.21703 8.90121 37082 ft 414 kts 217°
2026-05-08 11:53 45.16977 8.85457 37080 ft 414 kts 217°
2026-05-08 11:53 45.12233 8.80795 37079 ft 414 kts 217°
2026-05-08 11:54 45.07499 8.76147 37077 ft 414 kts 217°
2026-05-08 11:54 45.02765 8.71494 37080 ft 414 kts 217°
2026-05-08 11:55 44.98050 8.66875 37073 ft 415 kts 217°
2026-05-08 11:55 44.93302 8.62244 37069 ft 415 kts 217°
2026-05-08 11:56 44.88549 8.57615 37067 ft 415 kts 217°
2026-05-08 11:56 44.83801 8.52995 37062 ft 415 kts 217°
2026-05-08 11:57 44.79044 8.48386 37059 ft 415 kts 217°
2026-05-08 11:57 44.74281 8.43778 37059 ft 416 kts 217°
2026-05-08 11:58 44.69507 8.39164 37056 ft 416 kts 217°
2026-05-08 11:58 44.64730 8.34555 37055 ft 417 kts 217°
2026-05-08 11:59 44.57547 8.27647 37059 ft 418 kts 217°
2026-05-08 11:59 44.52753 8.23051 37059 ft 418 kts 217°
2026-05-08 12:00 44.47975 8.18473 37062 ft 418 kts 217°
2026-05-08 12:00 44.43166 8.13871 37067 ft 419 kts 217°
2026-05-08 12:01 44.38348 8.09271 37070 ft 419 kts 217°
2026-05-08 12:01 44.33532 8.04692 37065 ft 419 kts 217°
2026-05-08 12:02 44.28709 8.00120 37065 ft 419 kts 217°
2026-05-08 12:02 44.23880 7.95545 37064 ft 420 kts 217°
2026-05-08 12:03 44.19044 7.90966 37062 ft 420 kts 217°
2026-05-08 12:03 44.14203 7.86395 37057 ft 420 kts 217°
2026-05-08 12:04 44.09360 7.81833 37057 ft 421 kts 217°
2026-05-08 12:04 44.04639 7.77151 37055 ft 418 kts 224°
2026-05-08 12:05 44.01040 7.70898 37059 ft 414 kts 243°
2026-05-08 12:05 43.98692 7.63606 37055 ft 414 kts 247°
2026-05-08 12:06 43.96387 7.56286 37062 ft 413 kts 247°
2026-05-08 12:06 43.94075 7.48984 37062 ft 412 kts 247°
2026-05-08 12:07 43.91777 7.41711 37070 ft 412 kts 247°
2026-05-08 12:07 43.89482 7.34462 37065 ft 410 kts 248°
2026-05-08 12:08 43.87183 7.27229 37065 ft 410 kts 248°
2026-05-08 12:08 43.84900 7.20056 37063 ft 409 kts 248°
2026-05-08 12:09 43.82603 7.12878 37054 ft 404 kts 249°
2026-05-08 12:09 43.80352 7.05872 37032 ft 396 kts 249°
2026-05-08 12:10 43.78121 6.98922 37038 ft 395 kts 249°
2026-05-08 12:10 43.75890 6.91987 37038 ft 394 kts 249°
2026-05-08 12:11 43.73663 6.85073 37031 ft 393 kts 249°
2026-05-08 12:11 43.71430 6.78164 37037 ft 394 kts 249°
2026-05-08 12:12 43.69184 6.71258 37040 ft 393 kts 249°
2026-05-08 12:12 43.66940 6.64370 37036 ft 393 kts 249°
2026-05-08 12:13 43.64691 6.57478 37036 ft 393 kts 249°
2026-05-08 12:13 43.62450 6.50645 37039 ft 393 kts 249°
2026-05-08 12:14 43.60193 6.43767 37033 ft 393 kts 249°
2026-05-08 12:14 43.57934 6.36885 37037 ft 393 kts 248°
2026-05-08 12:15 43.55665 6.30016 37034 ft 394 kts 248°
2026-05-08 12:15 43.53395 6.23151 37032 ft 394 kts 248°
2026-05-08 12:16 43.51120 6.16287 37036 ft 394 kts 248°
2026-05-08 12:16 43.48848 6.09440 37037 ft 393 kts 248°
2026-05-08 12:17 43.46574 6.02615 37038 ft 394 kts 248°
2026-05-08 12:17 43.44292 5.95768 37033 ft 394 kts 248°
2026-05-08 12:18 43.42002 5.88918 37033 ft 393 kts 248°
2026-05-08 12:18 43.39708 5.82086 37033 ft 393 kts 248°
2026-05-08 12:19 43.37417 5.75260 37040 ft 393 kts 248°
2026-05-08 12:19 43.35123 5.68455 37037 ft 393 kts 248°
2026-05-08 12:20 43.32819 5.61653 37030 ft 393 kts 248°
2026-05-08 12:20 43.30511 5.54855 37031 ft 393 kts 247°
2026-05-08 12:21 43.28215 5.48112 37035 ft 393 kts 247°
2026-05-08 12:21 43.25904 5.41329 37032 ft 392 kts 247°
2026-05-08 12:22 43.23592 5.34561 37030 ft 392 kts 247°
2026-05-08 12:22 43.21355 5.27755 37026 ft 391 kts 249°
2026-05-08 12:23 43.19237 5.20887 37027 ft 391 kts 249°
2026-05-08 12:23 43.17121 5.14020 37028 ft 391 kts 249°
2026-05-08 12:24 43.14977 5.07188 37029 ft 391 kts 248°
2026-05-08 12:24 43.12822 5.00391 37026 ft 391 kts 248°
2026-05-08 12:25 43.10659 4.93550 37026 ft 391 kts 248°
2026-05-08 12:25 43.08494 4.86722 37030 ft 391 kts 248°
2026-05-08 12:26 43.06122 4.80031 37029 ft 393 kts 238°
2026-05-08 12:26 43.02312 4.74620 37029 ft 402 kts 220°
2026-05-08 12:27 42.98464 4.71025 37020 ft 403 kts 219°
2026-05-08 12:27 42.93821 4.66724 37024 ft 403 kts 219°
2026-05-08 12:28 42.89177 4.62420 37023 ft 403 kts 219°
2026-05-08 12:28 42.84548 4.58123 37025 ft 403 kts 219°
2026-05-08 12:29 42.79905 4.53829 37029 ft 403 kts 218°
2026-05-08 12:29 42.75272 4.49565 37032 ft 402 kts 218°
2026-05-08 12:30 42.70635 4.45311 37040 ft 402 kts 218°
2026-05-08 12:30 42.66035 4.41086 37050 ft 401 kts 218°
2026-05-08 12:31 42.61406 4.36838 37048 ft 401 kts 218°
2026-05-08 12:31 42.56785 4.32602 37049 ft 401 kts 218°
2026-05-08 12:32 42.52163 4.28375 37041 ft 401 kts 218°
2026-05-08 12:32 42.47536 4.24150 37045 ft 400 kts 218°
2026-05-08 12:33 42.42912 4.19944 37044 ft 400 kts 217°
2026-05-08 12:33 42.38296 4.15757 37050 ft 400 kts 217°
2026-05-08 12:34 42.33705 4.11594 37043 ft 399 kts 217°
2026-05-08 12:34 42.29095 4.07415 37050 ft 399 kts 217°
2026-05-08 12:35 42.24481 4.03242 37041 ft 399 kts 218°
2026-05-08 12:35 42.20596 3.98031 37031 ft 393 kts 237°
2026-05-08 12:36 42.18133 3.91489 37033 ft 392 kts 246°
2026-05-08 12:36 42.15935 3.84743 37029 ft 392 kts 246°
2026-05-08 12:37 42.13726 3.78021 37029 ft 392 kts 246°
2026-05-08 12:37 42.11512 3.71303 37029 ft 392 kts 246°
2026-05-08 12:38 42.09312 3.64627 37033 ft 393 kts 245°
2026-05-08 12:38 42.06427 3.58393 37027 ft 393 kts 235°
2026-05-08 12:39 42.03238 3.52394 37471 ft 395 kts 236°
2026-05-08 12:39 42.01644 3.49388 37973 ft 393 kts 236°
2026-05-08 12:39 42.00056 3.46400 38440 ft 392 kts 235°
2026-05-08 12:40 41.98470 3.43418 38866 ft 392 kts 235°
2026-05-08 12:40 41.96882 3.40439 38993 ft 391 kts 235°
2026-05-08 12:40 41.93736 3.34548 39027 ft 390 kts 235°
2026-05-08 12:41 41.90573 3.28631 39027 ft 390 kts 235°
2026-05-08 12:41 41.87405 3.22719 39014 ft 390 kts 235°
2026-05-08 12:42 41.84232 3.16814 39028 ft 390 kts 235°
2026-05-08 12:42 41.81062 3.10922 39026 ft 390 kts 235°
2026-05-08 12:43 41.77893 3.05028 39027 ft 390 kts 234°
2026-05-08 12:43 41.74720 2.99135 39018 ft 390 kts 234°
2026-05-08 12:44 41.71530 2.93243 39027 ft 391 kts 234°
2026-05-08 12:44 41.68333 2.87356 39027 ft 391 kts 234°
2026-05-08 12:45 41.65137 2.81473 39027 ft 391 kts 234°
2026-05-08 12:45 41.61934 2.75585 39027 ft 392 kts 234°
2026-05-08 12:46 41.58741 2.69723 39026 ft 392 kts 234°
2026-05-08 12:46 41.55527 2.63833 39027 ft 393 kts 234°
2026-05-08 12:47 41.52301 2.57941 39021 ft 393 kts 234°
2026-05-08 12:47 41.49076 2.52047 39026 ft 393 kts 234°
2026-05-08 12:48 41.45837 2.46164 39032 ft 394 kts 234°
2026-05-08 12:48 41.42595 2.40279 39036 ft 394 kts 234°
2026-05-08 12:49 41.39346 2.34390 39036 ft 394 kts 234°
2026-05-08 12:49 41.36118 2.28551 39037 ft 394 kts 234°
2026-05-08 12:50 41.32870 2.22686 39037 ft 394 kts 234°
2026-05-08 12:50 41.29617 2.16817 39033 ft 394 kts 234°
2026-05-08 12:51 41.24737 2.08038 39030 ft 394 kts 234°
2026-05-08 12:52 41.21478 2.02183 39028 ft 394 kts 234°
2026-05-08 12:52 41.16582 1.93411 39014 ft 395 kts 233°
2026-05-08 12:53 41.13295 1.87536 38526 ft 399 kts 233°
2026-05-08 12:53 41.11636 1.84583 37879 ft 400 kts 233°
2026-05-08 12:53 41.09970 1.81624 37223 ft 400 kts 233°
2026-05-08 12:54 41.08307 1.78668 36573 ft 400 kts 233°
2026-05-08 12:54 41.06642 1.75704 35923 ft 400 kts 233°
2026-05-08 12:54 41.04948 1.72760 35270 ft 404 kts 229°
2026-05-08 12:54 41.03064 1.69972 34617 ft 408 kts 227°
2026-05-08 12:55 41.01178 1.67208 33973 ft 411 kts 227°
2026-05-08 12:55 40.99252 1.64391 33320 ft 414 kts 227°
2026-05-08 12:55 40.97316 1.61565 32668 ft 415 kts 227°
2026-05-08 12:55 40.95373 1.58735 32018 ft 416 kts 227°
2026-05-08 12:56 40.93424 1.55896 31364 ft 418 kts 227°
2026-05-08 12:56 40.91472 1.53045 30712 ft 419 kts 227°
2026-05-08 12:56 40.89512 1.50186 30059 ft 420 kts 227°
2026-05-08 12:56 40.87548 1.47327 29406 ft 421 kts 227°
2026-05-08 12:57 40.85575 1.44460 28749 ft 423 kts 227°
2026-05-08 12:57 40.83587 1.41571 28097 ft 425 kts 227°
2026-05-08 12:57 40.81599 1.38686 27444 ft 427 kts 227°
2026-05-08 12:57 40.79589 1.35779 26791 ft 428 kts 227°
2026-05-08 12:58 40.77588 1.32886 26138 ft 425 kts 227°
2026-05-08 12:58 40.75607 1.30019 25495 ft 422 kts 228°
2026-05-08 12:58 40.73658 1.27198 24838 ft 419 kts 228°
2026-05-08 12:58 40.71677 1.24337 24183 ft 415 kts 228°
2026-05-08 12:59 40.69741 1.21545 23527 ft 412 kts 228°
2026-05-08 12:59 40.67810 1.18763 22880 ft 409 kts 227°
2026-05-08 12:59 40.65901 1.16018 22217 ft 406 kts 227°
2026-05-08 12:59 40.64003 1.13287 21578 ft 403 kts 227°
2026-05-08 13:00 40.62142 1.10602 20942 ft 400 kts 227°
2026-05-08 13:00 40.60271 1.07903 20280 ft 396 kts 227°
2026-05-08 13:00 40.58420 1.05244 19632 ft 393 kts 227°
2026-05-08 13:00 40.56570 1.02587 18981 ft 391 kts 227°
2026-05-08 13:01 40.54744 0.99965 18324 ft 388 kts 227°
2026-05-08 13:01 40.52923 0.97358 17676 ft 385 kts 226°
2026-05-08 13:01 40.51115 0.94777 17024 ft 383 kts 226°
2026-05-08 13:01 40.49316 0.92211 16379 ft 381 kts 226°
2026-05-08 13:02 40.47528 0.89660 15720 ft 379 kts 226°
2026-05-08 13:02 40.45748 0.87120 15067 ft 377 kts 226°
2026-05-08 13:02 40.43993 0.84625 14424 ft 375 kts 226°
2026-05-08 13:02 40.42230 0.82117 13767 ft 373 kts 226°
2026-05-08 13:03 40.40478 0.79625 13120 ft 371 kts 226°
2026-05-08 13:03 40.38726 0.77138 12468 ft 369 kts 226°
2026-05-08 13:03 40.36990 0.74678 11814 ft 367 kts 226°
2026-05-08 13:03 40.35254 0.72217 11159 ft 366 kts 226°
2026-05-08 13:04 40.33529 0.69772 10507 ft 364 kts 226°
2026-05-08 13:04 40.31815 0.67347 10107 ft 363 kts 226°
2026-05-08 13:04 40.30104 0.64918 9991 ft 354 kts 226°
2026-05-08 13:04 40.28508 0.62630 10019 ft 329 kts 228°
2026-05-08 13:05 40.27204 0.60262 10015 ft 312 kts 237°
2026-05-08 13:05 40.26279 0.57815 10013 ft 291 kts 246°
2026-05-08 13:05 40.25660 0.55300 10007 ft 291 kts 255°
2026-05-08 13:05 40.25325 0.52696 10016 ft 291 kts 262°
2026-05-08 13:06 40.25131 0.50069 10017 ft 291 kts 262°
2026-05-08 13:06 40.24931 0.47435 10014 ft 291 kts 262°
2026-05-08 13:06 40.24728 0.44804 10015 ft 291 kts 262°
2026-05-08 13:06 40.24522 0.42172 10015 ft 291 kts 262°
2026-05-08 13:07 40.24315 0.39540 10015 ft 291 kts 262°
2026-05-08 13:07 40.24107 0.36907 9865 ft 292 kts 262°
2026-05-08 13:07 40.23896 0.34251 9360 ft 294 kts 262°
2026-05-08 13:07 40.23684 0.31580 8856 ft 296 kts 262°
2026-05-08 13:08 40.23471 0.28898 8358 ft 298 kts 262°
2026-05-08 13:08 40.23259 0.26197 7855 ft 299 kts 262°
2026-05-08 13:08 40.23049 0.23481 7349 ft 300 kts 263°
2026-05-08 13:08 40.22838 0.20799 6858 ft 301 kts 263°
2026-05-08 13:09 40.22615 0.18027 6353 ft 302 kts 263°
2026-05-08 13:09 40.22398 0.15293 5847 ft 303 kts 263°
2026-05-08 13:09 40.22181 0.12554 5346 ft 302 kts 263°
2026-05-08 13:09 40.21722 0.09912 5028 ft 293 kts 246°
2026-05-08 13:10 40.20688 0.07743 4913 ft 278 kts 227°
2026-05-08 13:10 40.19268 0.06070 4837 ft 265 kts 219°
2026-05-08 13:10 40.17901 0.04583 4762 ft 253 kts 219°
2026-05-08 13:10 40.16578 0.03148 4684 ft 242 kts 219°
2026-05-08 13:11 40.15308 0.01770 4608 ft 235 kts 219°
2026-05-08 13:11 40.14056 0.00408 4536 ft 234 kts 219°
2026-05-08 13:11 40.12810 -0.00947 4460 ft 232 kts 218°
2026-05-08 13:11 40.11568 -0.02297 4378 ft 231 kts 217°
2026-05-08 13:12 40.10333 -0.03640 4307 ft 230 kts 217°
2026-05-08 13:12 40.09096 -0.04981 4244 ft 231 kts 217°
2026-05-08 13:12 40.07856 -0.06320 4198 ft 231 kts 217°
2026-05-08 13:12 40.06639 -0.07642 4142 ft 222 kts 217°
2026-05-08 13:13 40.05680 -0.09138 4090 ft 214 kts 241°
2026-05-08 13:13 40.05339 -0.10962 4032 ft 208 kts 268°
2026-05-08 13:13 40.05630 -0.12768 3981 ft 202 kts 294°
2026-05-08 13:13 40.06464 -0.14211 3932 ft 201 kts 320°
2026-05-08 13:14 40.07691 -0.15063 3874 ft 201 kts 346°
2026-05-08 13:14 40.09066 -0.15164 3787 ft 199 kts 13°
2026-05-08 13:14 40.10331 -0.14518 3684 ft 194 kts 37°
2026-05-08 13:14 40.11240 -0.13269 3576 ft 189 kts 64°
2026-05-08 13:15 40.11932 -0.11798 3495 ft 191 kts 59°
2026-05-08 13:15 40.12624 -0.10357 3389 ft 184 kts 62°
2026-05-08 13:15 40.13300 -0.08961 3293 ft 181 kts 60°
2026-05-08 13:15 40.13975 -0.07614 3210 ft 171 kts 60°
2026-05-08 13:16 40.14600 -0.06378 3112 ft 154 kts 60°
2026-05-08 13:16 40.15163 -0.05264 3038 ft 143 kts 61°
2026-05-08 13:16 40.15696 -0.04196 2897 ft 139 kts 62°
2026-05-08 13:16 40.16209 -0.03164 2758 ft 136 kts 62°
2026-05-08 13:17 40.16724 -0.02126 2572 ft 136 kts 62°
2026-05-08 13:17 40.17235 -0.01095 2395 ft 135 kts 62°
2026-05-08 13:17 40.17739 -0.00078 2235 ft 130 kts 62°
2026-05-08 13:17 40.18228 0.00912 2050 ft 129 kts 60°
2026-05-08 13:18 40.18708 0.01882 1875 ft 126 kts 59°
2026-05-08 13:18 40.19185 0.02833 1711 ft 125 kts 58°
2026-05-08 13:18 40.19663 0.03776 1550 ft 124 kts 59°
2026-05-08 13:18 40.20131 0.04723 1408 ft 124 kts 59°
2026-05-08 13:19 40.20591 0.05678 1273 ft 124 kts 59°
2026-05-08 13:19 40.21044 0.06600 1193 ft 110 kts 58°
2026-05-08 13:19 40.21371 0.07273 1190 ft 63 kts 57°
2026-05-08 13:19 40.21517 0.07568 1190 ft 16 kts 56°
2026-05-08 13:20 40.21560 0.07659 1190 ft 5 kts 78°
2026-05-08 13:20 40.21565 0.07694 1190 ft 4 kts 45°
2026-05-08 13:20 40.21573 0.07669 1190 ft 7 kts 254°
2026-05-08 13:20 40.21518 0.07563 1190 ft 22 kts 235°
2026-05-08 13:21 40.21407 0.07346 1190 ft 36 kts 238°
2026-05-08 13:21 40.21250 0.07024 1190 ft 48 kts 237°
2026-05-08 13:21 40.21046 0.06614 1190 ft 59 kts 237°
2026-05-08 13:21 40.20835 0.06181 1190 ft 40 kts 238°
2026-05-08 13:22 40.20750 0.06065 1190 ft 12 kts 176°
2026-05-08 13:22 40.20659 0.06120 1190 ft 17 kts 148°
2026-05-08 13:22 40.20664 0.06240 1190 ft 17 kts 58°
2026-05-08 13:22 40.20722 0.06382 1190 ft 11 kts 76°
2026-05-08 13:23 40.20660 0.06431 1190 ft 13 kts 154°
2026-05-08 13:23 40.20591 0.06402 1190 ft 12 kts 229°
2026-05-08 13:23 40.20544 0.06392 1190 ft 9 kts 149°
2026-05-08 13:23 40.20514 0.06416 1190 ft 1 kts 148°
2026-05-08 13:24 40.20513 0.06418 1190 ft 0 kts 147°